TimeCDT,TemperatureF,Dew PointF,Humidity,Sea Level PressureIn,VisibilityMPH,Wind Direction,Wind SpeedMPH,Gust SpeedMPH,PrecipitationIn,Events,Conditions,WindDirDegrees,DateUTC
12:15 AM,53.1,32.2,45,30.19,10.0,ENE,8.1,-,N/A,,Overcast,70,2013-05-27 05:15:00
12:35 AM,53.1,32.0,45,30.18,10.0,ENE,8.1,-,N/A,,Overcast,70,2013-05-27 05:35:00
12:55 AM,53.1,32.2,45,30.16,10.0,ENE,9.2,-,N/A,,Overcast,70,2013-05-27 05:55:00
1:15 AM,53.1,32.0,45,30.15,10.0,ENE,8.1,-,N/A,,Overcast,70,2013-05-27 06:15:00
1:35 AM,53.1,31.8,44,30.15,10.0,East,6.9,-,N/A,,Overcast,90,2013-05-27 06:35:00
1:55 AM,52.9,32.0,45,30.14,10.0,East,6.9,-,N/A,,Overcast,80,2013-05-27 06:55:00
2:15 AM,52.9,32.2,45,30.14,10.0,East,10.4,-,N/A,,Overcast,80,2013-05-27 07:15:00
2:35 AM,52.7,32.5,46,30.12,10.0,East,11.5,-,N/A,,Overcast,80,2013-05-27 07:35:00
2:55 AM,52.7,33.1,47,30.12,10.0,ENE,9.2,-,N/A,,Overcast,70,2013-05-27 07:55:00
3:15 AM,52.9,33.1,47,30.11,10.0,East,8.1,-,N/A,,Overcast,80,2013-05-27 08:15:00
3:35 AM,52.9,33.6,48,30.09,10.0,ENE,9.2,-,N/A,,Overcast,70,2013-05-27 08:35:00
3:55 AM,52.3,34.7,51,30.09,10.0,East,8.1,-,N/A,,Overcast,80,2013-05-27 08:55:00
4:15 AM,52.3,36.0,54,30.09,10.0,East,6.9,-,N/A,,Overcast,80,2013-05-27 09:15:00
4:35 AM,52.9,36.7,54,30.09,10.0,East,9.2,-,N/A,,Overcast,80,2013-05-27 09:35:00
4:55 AM,52.9,37.4,56,30.09,10.0,East,6.9,-,N/A,,Overcast,90,2013-05-27 09:55:00
5:15 AM,53.6,37.6,55,30.09,10.0,East,8.1,-,N/A,,Overcast,90,2013-05-27 10:15:00
5:35 AM,53.2,38.3,57,30.08,10.0,East,9.2,-,N/A,,Overcast,90,2013-05-27 10:35:00
5:55 AM,53.6,38.7,57,30.08,10.0,East,6.9,-,N/A,,Overcast,90,2013-05-27 10:55:00
6:15 AM,53.6,38.8,57,30.09,10.0,East,6.9,-,N/A,,Overcast,90,2013-05-27 11:15:00
6:35 AM,53.8,38.1,55,30.09,10.0,East,6.9,-,N/A,,Overcast,100,2013-05-27 11:35:00
6:55 AM,54.0,37.2,53,30.09,10.0,East,9.2,-,N/A,,Overcast,90,2013-05-27 11:55:00
7:15 AM,54.5,37.0,52,30.09,10.0,East,8.1,-,N/A,,Overcast,100,2013-05-27 12:15:00
7:35 AM,53.2,39.4,59,30.09,10.0,East,10.4,-,N/A,,Light Drizzle,100,2013-05-27 12:35:00
7:55 AM,53.1,39.7,61,30.10,10.0,East,8.1,-,N/A,,Overcast,100,2013-05-27 12:55:00
8:15 AM,53.6,40.1,60,30.10,10.0,East,10.4,-,N/A,,Overcast,100,2013-05-27 13:15:00
8:35 AM,54.0,42.3,65,30.09,10.0,ESE,12.7,17.3,N/A,,Overcast,110,2013-05-27 13:35:00
8:55 AM,54.0,45.5,73,30.09,10.0,ESE,12.7,18.4,N/A,,Overcast,110,2013-05-27 13:55:00
9:15 AM,53.1,47.5,81,30.07,4.0,ESE,17.3,24.2,N/A,,Drizzle,110,2013-05-27 14:15:00
9:35 AM,52.3,49.1,89,30.07,2.0,East,16.1,24.2,N/A,Rain,Light Rain,100,2013-05-27 14:35:00
9:55 AM,52.2,50.0,92,30.05,4.0,East,13.8,24.2,N/A,Rain,Light Rain,100,2013-05-27 14:55:00
10:15 AM,52.7,50.9,94,30.04,10.0,East,15.0,-,N/A,,Overcast,100,2013-05-27 15:15:00
10:35 AM,53.1,50.2,90,30.04,10.0,East,15.0,23.0,N/A,,Overcast,100,2013-05-27 15:35:00
10:55 AM,53.8,50.0,87,30.03,10.0,East,19.6,26.5,N/A,,Overcast,100,2013-05-27 15:55:00
11:15 AM,53.8,49.3,85,30.04,10.0,ESE,20.7,27.6,N/A,,Overcast,110,2013-05-27 16:15:00
11:35 AM,53.8,49.6,86,30.05,10.0,ESE,15.0,23.0,N/A,,Overcast,110,2013-05-27 16:35:00
11:55 AM,53.4,49.6,87,30.06,10.0,ESE,12.7,23.0,N/A,,Overcast,110,2013-05-27 16:55:00
12:15 PM,53.8,49.8,86,30.05,10.0,ESE,17.3,21.9,N/A,,Overcast,110,2013-05-27 17:15:00
12:35 PM,54.0,49.8,86,30.05,10.0,ESE,21.9,-,N/A,,Overcast,110,2013-05-27 17:35:00
12:55 PM,53.8,49.5,85,30.04,10.0,East,15.0,23.0,N/A,,Overcast,100,2013-05-27 17:55:00
1:15 PM,54.0,49.6,85,30.04,10.0,East,12.7,-,N/A,,Overcast,100,2013-05-27 18:15:00
1:35 PM,53.8,49.5,85,30.03,10.0,East,15.0,20.7,N/A,,Overcast,90,2013-05-27 18:35:00
1:55 PM,53.8,49.3,85,30.03,10.0,East,16.1,21.9,N/A,,Overcast,100,2013-05-27 18:55:00
2:15 PM,53.2,49.1,86,30.02,10.0,East,17.3,-,N/A,,Overcast,90,2013-05-27 19:15:00
2:35 PM,52.7,48.7,86,30.01,10.0,East,17.3,23.0,N/A,,Overcast,90,2013-05-27 19:35:00
2:55 PM,52.5,48.7,87,29.99,10.0,East,18.4,27.6,N/A,,Overcast,90,2013-05-27 19:55:00
3:15 PM,52.3,48.6,87,30.01,10.0,East,17.3,23.0,N/A,,Overcast,90,2013-05-27 20:15:00
3:35 PM,52.3,48.7,88,30.01,10.0,ESE,15.0,-,N/A,,Overcast,110,2013-05-27 20:35:00
3:55 PM,51.8,48.2,88,29.99,10.0,East,16.1,21.9,N/A,,Overcast,90,2013-05-27 20:55:00
4:15 PM,51.4,48.0,88,29.97,10.0,East,17.3,24.2,N/A,,Overcast,90,2013-05-27 21:15:00
4:35 PM,50.9,47.5,88,29.97,10.0,East,15.0,21.9,N/A,,Overcast,90,2013-05-27 21:35:00
4:55 PM,50.7,47.7,89,29.97,10.0,East,12.7,17.3,N/A,,Overcast,90,2013-05-27 21:55:00
5:15 PM,50.2,47.7,91,29.99,7.0,East,10.4,-,N/A,,Overcast,100,2013-05-27 22:15:00
5:35 PM,50.0,48.2,94,29.98,5.0,East,13.8,18.4,N/A,,Overcast,90,2013-05-27 22:35:00
5:55 PM,50.0,48.7,95,29.97,3.0,East,12.7,-,N/A,,Overcast,90,2013-05-27 22:55:00
6:15 PM,50.0,49.1,97,29.96,2.5,East,13.8,-,N/A,,Light Drizzle,90,2013-05-27 23:15:00
6:35 PM,49.6,49.1,98,29.96,3.0,East,12.7,19.6,N/A,,Overcast,80,2013-05-27 23:35:00
6:55 PM,49.6,49.1,98,29.95,2.5,East,11.5,-,N/A,,Drizzle,100,2013-05-27 23:55:00
7:15 PM,49.6,49.1,98,29.95,3.0,East,13.8,-,0.02,Rain,Light Rain,90,2013-05-28 00:15:00
7:35 PM,49.6,49.1,98,29.95,5.0,East,11.5,-,0.02,,Overcast,90,2013-05-28 00:35:00
7:55 PM,49.5,49.1,99,29.94,5.0,East,15.0,19.6,0.02,,Overcast,80,2013-05-28 00:55:00
8:15 PM,49.5,49.1,99,29.94,5.0,East,12.7,17.3,N/A,,Overcast,90,2013-05-28 01:15:00
8:35 PM,49.5,49.1,99,29.94,4.0,East,12.7,-,N/A,,Overcast,90,2013-05-28 01:35:00
8:55 PM,49.5,49.1,99,29.93,4.0,East,13.8,17.3,N/A,,Overcast,90,2013-05-28 01:55:00
9:15 PM,49.5,49.1,99,29.92,3.0,East,10.4,-,N/A,,Overcast,80,2013-05-28 02:15:00
9:35 PM,49.6,49.3,99,29.93,3.0,East,10.4,16.1,N/A,,Overcast,100,2013-05-28 02:35:00
9:55 PM,49.6,49.3,99,29.93,2.0,East,10.4,-,N/A,,Overcast,100,2013-05-28 02:55:00
10:15 PM,49.6,49.5,99,29.93,2.0,East,9.2,-,N/A,,Overcast,100,2013-05-28 03:15:00
10:35 PM,49.6,49.5,99,29.94,1.8,East,8.1,-,N/A,,Overcast,90,2013-05-28 03:35:00
10:55 PM,49.6,49.5,99,29.94,1.2,East,6.9,-,N/A,,Overcast,100,2013-05-28 03:55:00
11:15 PM,49.6,49.5,99,29.93,1.0,East,8.1,-,N/A,,Overcast,100,2013-05-28 04:15:00
11:35 PM,49.6,49.5,99,29.93,1.2,East,6.9,-,N/A,,Overcast,100,2013-05-28 04:35:00
11:55 PM,49.6,49.5,99,29.92,1.2,ESE,10.4,-,N/A,,Overcast,110,2013-05-28 04:55:00